ATLAS 5 CENTAUR DEB, 57587

Orbit data source: Space-Track

ATLAS 5 CENTAUR DEB, 57587 is space debris in HEO originally from a launch on Wed, 17 Oct 2018 UTC launched from the Air Force Eastern Test Range (AFETR). Debris objects in space refer to the collection of defunct objects orbiting the Earth. Examples of debris include non-operational satellites, rocket bodies, and fragments generated from explosions, collisions, or faulty payload assembly.

Loading next visibility...
Identifier
57587, 2018-079HN
Orbit
HEO
Country
Flag of USUS
Related business
Flag of USUnited Launch Alliance/Lockheed Martin (US)
Manufacturer
ULA Decatur
Mission
Spacecraft
Bus & Motor
Unknown
Mass
Unknown
Launch date (UTC)
2018-10-17 (8 years ago)
Launch vehicle
Unknown
Launch site
Air Force Eastern Test Range (AFETR)
Object type
Payload
Rocket body
Debris
Shape & HBR
Unknown shape, 1.1 m
Radar Cross Section
RCS unknown

Expand to show TLE details & history
Last TLE update: 1 month ago

TLE from 1 month ago
0 ATLAS 5 CENTAUR DEB
1 57587U 18079HN  26142.81571755 -.00000087  00000-0  00000-0 0  9997
2 57587  13.5868  43.5966 4690067 291.9532  25.4941  1.77530108 22192
Epoch: 2026-05-22T19:34Z
TLE epoch observation values (Epoch: 2026-05-22T19:34:37.996Z)
Latitude
0.0001°
Longitude
-130.56431°
Altitude
12,764.056 km
Speed
5.274 km/s
True Right ascension
02h 54m 08s
True Declination
0° 00' 00"
Sunlit
Object was in daylight at epoch
Visualization orbit readout
Latitude
Unknown
Longitude
Unknown
Altitude
Unknown
Speed
Unknown
Apparent Right ascension
Unknown
Apparent Declination
Unknown
Sunlit
N/A
Visualization observer readout
Local Sidereal Time
05:39:38
Azimuth
Unknown
Elevation
Unknown
Doppler factor
Unknown
Orbital elements
Apogee altitude
35,947.992 km
Perigee altitude
8,921.242 km
Semi-major axis
28,812.754 km
Eccentricity
0.46901
Inclination
13.5868°
RAAN
43.5966°
Arg. of periapsis
291.9532°
True anomaly
68.12638°
Mean anomaly
25.4941°
Eccentric anomaly
44.24277°
Mean motion
0.44378 °/min
Orbital period
811.22 mins
BSTAR
0
Loading maneuver chart data...
Computing Atmospheric mass density...

Documentation

Showing up to 5 results
|